Voltar ao catálogo

CZ-6A DEB

AtivoSSO
NORAD 54410·DEBRIS·🇨🇳 China

Lançado Nov 11, 2022 de Taiyuan Satellite Launch Center

Loading…

Próximas Passagens (próximas 24 horas)

TLE

AtualizadoSource: Space-Track

Época: Sep 14, 2026, 02:12 UTC

1 54410U 22151EJ  26257.09195902  .00001416  00000-0  39659-3 0  9999
2 54410  98.6837 307.4063 0126244 355.4913   4.5129 14.43174163201197

Acompanhe CZ-6A DEB em tempo real com AllMySat

Download on the App Store